Powrót do katalogu

STARLINK-11138

AktywnyŁącznośćVLEO
NORAD 59949·PAYLOAD·🇺🇸 United States

Wystrzelony Jun 5, 2024 z Cape Canaveral Space Force Station

Loading…

Następne Przeloty (najbliższe 24 godziny)

TLE

ŚwieżeSource: CelesTrak SupGP

Epoka: Sep 14, 2026, 20:50 UTC

1 59949C 24107E   26257.86854167  .00080737  00000+0  66524-3 0  2574
2 59949  53.1566  38.6483 0001060  78.5202 116.4869 15.69662464    12

Śledź STARLINK-11138 w czasie rzeczywistym z AllMySat

Download on the App Store